TimeEDT,TemperatureF,Dew PointF,Humidity,Sea Level PressureIn,VisibilityMPH,Wind Direction,Wind SpeedMPH,Gust SpeedMPH,PrecipitationIn,Events,Conditions,WindDirDegrees,DateUTC
12:14 AM,77.0,73.4,89,30.07,10.0,North,3.5,-,N/A,,Overcast,10,2013-08-17 04:14:00
12:53 AM,79.0,75.9,90,30.06,10.0,Calm,Calm,-,N/A,,Overcast,0,2013-08-17 04:53:00
1:17 AM,78.8,75.2,89,30.07,10.0,Calm,Calm,-,N/A,,Overcast,0,2013-08-17 05:17:00
1:53 AM,79.0,77.0,94,30.06,10.0,Calm,Calm,-,0.00,Rain,Light Rain,0,2013-08-17 05:53:00
2:22 AM,78.8,77.0,94,30.06,10.0,Calm,Calm,-,0.00,,Overcast,0,2013-08-17 06:22:00
2:53 AM,79.0,77.0,94,30.05,10.0,Calm,Calm,-,0.00,,Overcast,0,2013-08-17 06:53:00
3:53 AM,79.0,78.1,97,30.04,10.0,NNE,3.5,-,N/A,,Mostly Cloudy,20,2013-08-17 07:53:00
4:53 AM,79.0,77.0,94,30.03,10.0,East,4.6,-,N/A,,Mostly Cloudy,80,2013-08-17 08:53:00
5:53 AM,79.0,78.1,97,30.03,10.0,ESE,5.8,-,N/A,,Mostly Cloudy,120,2013-08-17 09:53:00
6:53 AM,78.1,77.0,96,30.04,10.0,ESE,4.6,-,N/A,,Mostly Cloudy,120,2013-08-17 10:53:00
7:53 AM,79.0,78.1,97,30.06,10.0,Variable,3.5,-,N/A,,Mostly Cloudy,0,2013-08-17 11:53:00
8:53 AM,80.1,78.1,94,30.07,10.0,SE,6.9,-,N/A,,Mostly Cloudy,140,2013-08-17 12:53:00
9:16 AM,80.6,78.8,94,30.07,10.0,SSE,6.9,-,N/A,,Mostly Cloudy,160,2013-08-17 13:16:00
9:53 AM,84.0,79.0,85,30.08,10.0,SE,5.8,-,N/A,,Mostly Cloudy,140,2013-08-17 13:53:00
10:53 AM,86.0,78.1,77,30.09,10.0,SSE,6.9,-,N/A,,Mostly Cloudy,150,2013-08-17 14:53:00
11:53 AM,89.1,77.0,67,30.08,10.0,ESE,6.9,-,N/A,,Mostly Cloudy,120,2013-08-17 15:53:00
12:53 PM,89.1,75.9,65,30.06,10.0,SSE,6.9,-,N/A,,Mostly Cloudy,150,2013-08-17 16:53:00
1:53 PM,91.0,73.9,57,30.05,10.0,SE,8.1,-,N/A,,Overcast,140,2013-08-17 17:53:00
2:53 PM,91.9,73.9,55,30.02,10.0,East,10.4,-,N/A,,Overcast,100,2013-08-17 18:53:00
3:53 PM,89.1,75.0,63,30.01,10.0,East,13.8,-,N/A,,Overcast,90,2013-08-17 19:53:00
4:01 PM,89.6,75.2,62,30.02,10.0,ESE,12.7,-,N/A,Thunderstorm,Thunderstorm,110,2013-08-17 20:01:00
4:30 PM,89.6,75.2,62,30.01,10.0,East,9.2,-,0.00,,Overcast,100,2013-08-17 20:30:00
4:53 PM,91.0,75.9,61,30.01,10.0,East,13.8,-,0.00,,Overcast,100,2013-08-17 20:53:00
5:30 PM,87.8,75.2,66,30.03,10.0,ESE,17.3,23.0,N/A,Thunderstorm,Thunderstorm,120,2013-08-17 21:30:00
5:53 PM,78.1,75.0,90,30.03,3.0,South,17.3,33.4,0.04,Rain-Thunderstorm,Heavy Thunderstorms and Rain,170,2013-08-17 21:53:00
5:57 PM,78.8,75.2,89,30.02,0.8,SSE,18.4,33.4,0.15,Rain-Thunderstorm,Heavy Thunderstorms and Rain,150,2013-08-17 21:57:00
6:01 PM,78.8,77.0,94,30.03,2.0,SSE,16.1,-,0.22,Rain-Thunderstorm,Heavy Thunderstorms and Rain,150,2013-08-17 22:01:00
6:08 PM,78.8,75.2,89,30.04,5.0,SSE,9.2,-,0.25,Rain-Thunderstorm,Light Thunderstorms and Rain,160,2013-08-17 22:08:00
6:34 PM,78.8,78.8,100,30.06,10.0,Calm,Calm,-,0.25,,Overcast,0,2013-08-17 22:34:00
6:53 PM,78.1,78.1,100,30.06,10.0,ESE,3.5,-,0.25,,Overcast,110,2013-08-17 22:53:00
7:53 PM,79.0,75.9,90,30.09,10.0,Calm,Calm,-,0.00,Rain,Light Rain,0,2013-08-17 23:53:00
8:53 PM,80.1,75.9,87,30.08,10.0,East,4.6,-,0.01,,Overcast,80,2013-08-18 00:53:00
9:53 PM,80.1,77.0,90,30.10,10.0,East,5.8,-,N/A,,Overcast,100,2013-08-18 01:53:00
10:53 PM,79.0,77.0,94,30.11,10.0,ENE,5.8,-,N/A,,Overcast,70,2013-08-18 02:53:00
11:53 PM,79.0,77.0,94,30.10,10.0,East,6.9,-,N/A,,Mostly Cloudy,100,2013-08-18 03:53:00